Location: Omaha
(41.2590°N, 95.9380°W)
Time: 03:31:23
(UTC-05:00)

Vanguard 2 - Visible Passes

Search period start: 21 October 2017 00:00
Search period end: 31 October 2017 00:00
Orbit: 554 x 2939 km, 32.9° (Epoch: 20 October)

Date Brightness Start Highest point End Pass type
(mag) Time Alt. Az. Time Alt. Az. Time Alt. Az.
21 Oct 12.0 05:59:29 10° S 06:08:25 16° SE 06:16:20 10° ESE visible
22 Oct 11.8 06:14:34 10° S 06:26:24 23° SE 06:36:23 10° ESE visible
23 Oct 11.6 06:30:41 10° SSW 06:44:22 29° SSE 06:55:35 10° E visible
24 Oct 11.9 04:44:05 10° SSE 04:51:54 14° SE 04:59:20 10° ESE visible
24 Oct 11.4 06:47:23 10° SSW 07:02:23 36° SSE 07:14:19 10° E visible
25 Oct 11.8 04:58:29 10° S 05:09:42 21° SE 05:20:08 10° E visible
25 Oct 11.2 07:04:31 10° SW 07:20:25 42° SSE 07:32:49 10° E visible
26 Oct 11.6 05:14:14 10° SSW 05:27:31 27° SE 05:39:41 10° E visible
26 Oct 11.0 07:21:58 10° SW 07:38:30 49° SSE 07:51:08 10° E visible
27 Oct 11.9 03:31:00 10° SSE 03:35:21 11° SE 03:39:43 10° ESE visible
27 Oct 11.3 05:30:41 10° SSW 05:45:23 34° SSE 05:58:40 10° E visible
28 Oct 11.7 03:43:35 10° S 03:52:58 17° SE 04:02:28 10° ESE visible
28 Oct 11.1 05:47:37 10° SSW 06:03:17 40° SSE 06:17:18 10° E visible
29 Oct 11.5 04:00:42 13° S 04:10:35 23° SE 04:22:39 10° E visible
29 Oct 11.0 06:04:54 10° SW 06:21:16 47° SSE 06:35:45 10° E visible
30 Oct 11.3 04:18:33 18° S 04:28:16 30° SE 04:41:58 10° E visible
30 Oct 10.8 06:22:28 10° SW 06:39:19 53° SSE 06:54:04 10° E visible
